| time (UTC) | temp C | wind direction | speed KPH | gust KPH | rain 1hr cm | rain 24hr cm | rain mn cm | humidity % | barometer mb |
| 20260906234826 | 22 | 163 | 0.0 | 1.6 | 0.00 | 0.00 | 0.00 | 70 | 998.5 |
| 20260906233325 | 23 | 172 | 0.0 | 0.0 | 0.00 | 0.00 | 0.00 | 66 | 998.7 |
| 20260906231820 | 23 | 115 | 1.6 | 4.8 | 0.00 | 0.00 | 0.00 | 65 | 998.9 |
| 20260906230316 | 24 | 136 | 1.6 | 4.8 | 0.00 | 0.00 | 0.00 | 63 | 999.1 |
| 20260906224811 | 24 | 148 | 1.6 | 4.8 | 0.00 | 0.00 | 0.00 | 62 | 999.3 |
| 20260906223311 | 24 | 3 | 1.6 | 3.2 | 0.00 | 0.00 | 0.00 | 63 | 999.2 |
| 20260906221806 | 24 | 92 | 1.6 | 9.7 | 0.00 | 0.00 | 0.00 | 59 | 999.3 |
| 20260906220303 | 25 | 124 | 1.6 | 3.2 | 0.00 | 0.00 | 0.00 | 59 | 999.3 |
| 20260906214800 | 25 | 118 | 1.6 | 3.2 | 0.00 | 0.00 | 0.00 | 59 | 999.4 |
| 20260906213300 | 25 | 175 | 1.6 | 3.2 | 0.00 | 0.00 | 0.00 | 58 | 999.7 |
| 20260906211759 | 25 | 0 | 4.8 | 9.7 | 0.00 | 0.00 | 0.00 | 56 | 999.6 |
| 20260906210255 | 25 | 59 | 3.2 | 9.7 | 0.00 | 0.00 | 0.00 | 58 | 999.6 |
| 20260906204753 | 25 | 149 | 1.6 | 6.4 | 0.00 | 0.00 | 0.00 | 56 | 999.7 |
| 20260906203253 | 25 | 242 | 1.6 | 3.2 | 0.00 | 0.00 | 0.00 | 57 | 999.5 |
| 20260906201750 | 25 | 146 | 0.0 | 4.8 | 0.00 | 0.00 | 0.00 | 57 | 999.4 |
| 20260906200247 | 25 | 135 | 3.2 | 11.3 | 0.00 | 0.00 | 0.00 | 58 | 999.3 |
| 20260906194746 | 25 | 42 | 1.6 | 6.4 | 0.00 | 0.00 | 0.00 | 58 | 999.4 |
| 20260906193243 | 25 | 43 | 4.8 | 6.4 | 0.00 | 0.00 | 0.00 | 59 | 999.6 |
| 20260906191738 | 25 | 24 | 3.2 | 4.8 | 0.00 | 0.00 | 0.00 | 62 | 999.7 |
| 20260906190234 | 25 | 58 | 3.2 | 4.8 | 0.00 | 0.00 | 0.00 | 62 | 999.7 |
| 20260906184733 | 25 | 2 | 4.8 | 6.4 | 0.00 | 0.00 | 0.00 | 60 | 1000.0 |
| 20260906183232 | 25 | 106 | 1.6 | 6.4 | 0.00 | 0.00 | 0.00 | 62 | 999.8 |
| 20260906181728 | 25 | 189 | 1.6 | 3.2 | 0.00 | 0.00 | 0.00 | 65 | 999.7 |
| 20260906180226 | 23 | 119 | 1.6 | 6.4 | 0.00 | 0.00 | 0.00 | 68 | 1000.1 |
| 20260906174723 | 25 | 113 | 3.2 | 11.3 | 0.00 | 0.00 | 0.00 | 63 | 1000.2 |
| 20260906173220 | 24 | 112 | 1.6 | 3.2 | 0.00 | 0.00 | 0.00 | 66 | 1000.3 |
| 20260906171720 | 23 | 116 | 1.6 | 9.7 | 0.00 | 0.00 | 0.00 | 71 | 1000.4 |
| 20260906170218 | 23 | 32 | 3.2 | 6.4 | 0.00 | 0.00 | 0.00 | 68 | 1000.6 |
| 20260906164714 | 23 | 138 | 1.6 | 11.3 | 0.00 | 0.00 | 0.00 | 68 | 1001.0 |
| 20260906163213 | 24 | 179 | 0.0 | 3.2 | 0.00 | 0.00 | 0.00 | 70 | 1000.8 |
| 20260906161710 | 22 | 69 | 3.2 | 11.3 | 0.00 | 0.00 | 0.00 | 71 | 1000.6 |
| 20260906160208 | 23 | 63 | 4.8 | 11.3 | 0.00 | 0.00 | 0.00 | 72 | 1000.5 |
| 20260906154702 | 22 | 218 | 1.6 | 9.7 | 0.00 | 0.00 | 0.00 | 75 | 1000.8 |
| 20260906153201 | 22 | 159 | 6.4 | 6.4 | 0.00 | 0.00 | 0.00 | 71 | 1000.7 |
| 20260906151657 | 22 | 129 | 4.8 | 9.7 | 0.00 | 0.00 | 0.00 | 74 | 1000.9 |
| 20260906150155 | 22 | 193 | 1.6 | 3.2 | 0.00 | 0.00 | 0.00 | 75 | 1000.8 |
| 20260906144654 | 21 | 188 | 1.6 | 6.4 | 0.00 | 0.00 | 0.00 | 77 | 1000.6 |
| 20260906143152 | 22 | 115 | 1.6 | 4.8 | 0.00 | 0.00 | 0.00 | 79 | 1000.5 |
| 20260906141651 | 20 | 29 | 4.8 | 9.7 | 0.00 | 0.00 | 0.00 | 82 | 1000.4 |
| 20260906140146 | 20 | 46 | 3.2 | 4.8 | 0.00 | 0.00 | 0.00 | 84 | 1000.3 |
| 20260906134646 | 18 | 46 | 1.6 | 4.8 | 0.00 | 0.00 | 0.00 | 86 | 1000.2 |
| 20260906133143 | 18 | 92 | 0.0 | 4.8 | 0.00 | 0.00 | 0.00 | 88 | 1000.4 |
| 20260906131641 | 17 | 175 | 0.0 | 4.8 | 0.00 | 0.00 | 0.00 | 89 | 1000.3 |
| 20260906130138 | 17 | 279 | 3.2 | 4.8 | 0.00 | 0.00 | 0.00 | 89 | 1000.6 |
| 20260906124637 | 16 | 122 | 0.0 | 3.2 | 0.00 | 0.00 | 0.00 | 93 | 1000.3 |
| 20260906123132 | 15 | 172 | 0.0 | 0.0 | 0.00 | 0.00 | 0.00 | 99 | 1000.2 |
| 20260906121629 | 14 | 227 | 0.0 | 3.2 | 0.00 | 0.00 | 0.00 | 99 | 1000.0 |
| 20260906120124 | 13 | 147 | 0.0 | 0.0 | 0.00 | 0.00 | 0.00 | 99 | 999.7 |
| 20260906114624 | 13 | 0 | 0.0 | 0.0 | 0.00 | 0.00 | 0.00 | 99 | 999.7 |
| 20260906113120 | 13 | 207 | 0.0 | 0.0 | 0.00 | 0.00 | 0.00 | 98 | 999.6 |
| 20260906111615 | 13 | 186 | 0.0 | 0.0 | 0.00 | 0.00 | 0.00 | 98 | 999.3 |
| 20260906110111 | 13 | 227 | 0.0 | 0.0 | 0.00 | 0.00 | 0.00 | 97 | 999.3 |
| 20260906104607 | 13 | 172 | 0.0 | 0.0 | 0.00 | 0.00 | 0.00 | 97 | 999.1 |
| 20260906103107 | 13 | 159 | 0.0 | 0.0 | 0.00 | 0.00 | 0.00 | 96 | 999.2 |
| 20260906101602 | 13 | 174 | 0.0 | 1.6 | 0.00 | 0.00 | 0.00 | 95 | 999.2 |
| 20260906100058 | 13 | 211 | 0.0 | 1.6 | 0.00 | 0.00 | 0.00 | 95 | 999.1 |
| 20260906094558 | 14 | 179 | 0.0 | 3.2 | 0.00 | 0.00 | 0.00 | 93 | 999.0 |
| 20260906093056 | 14 | 122 | 1.6 | 1.6 | 0.00 | 0.00 | 0.00 | 94 | 999.0 |
| 20260906091554 | 14 | 151 | 0.0 | 1.6 | 0.00 | 0.00 | 0.00 | 94 | 999.2 |
| 20260906090051 | 15 | 126 | 1.6 | 4.8 | 0.00 | 0.00 | 0.00 | 93 | 998.9 |
| 20260906084550 | 14 | 71 | 1.6 | 3.2 | 0.00 | 0.00 | 0.00 | 94 | 998.8 |
| 20260906083050 | 15 | 169 | 0.0 | 1.6 | 0.00 | 0.00 | 0.00 | 93 | 998.4 |
| 20260906081549 | 15 | 96 | 0.0 | 1.6 | 0.00 | 0.00 | 0.00 | 93 | 998.3 |
| 20260906080049 | 15 | 35 | 3.2 | 3.2 | 0.00 | 0.00 | 0.00 | 93 | 998.2 |
| 20260906074544 | 15 | 98 | 1.6 | 1.6 | 0.00 | 0.00 | 0.00 | 92 | 998.3 |
| 20260906073040 | 15 | 171 | 1.6 | 3.2 | 0.00 | 0.00 | 0.00 | 92 | 998.2 |
| 20260906071538 | 15 | 178 | 0.0 | 0.0 | 0.00 | 0.00 | 0.00 | 91 | 998.2 |
| 20260906070037 | 16 | 162 | 0.0 | 1.6 | 0.00 | 0.00 | 0.00 | 90 | 998.2 |
| 20260906064533 | 16 | 149 | 3.2 | 4.8 | 0.00 | 0.00 | 0.00 | 89 | 998.2 |
| 20260906063031 | 16 | 180 | 0.0 | 3.2 | 0.00 | 0.00 | 0.00 | 89 | 998.3 |
| 20260906061529 | 16 | 112 | 1.6 | 3.2 | 0.00 | 0.00 | 0.00 | 89 | 998.3 |
| 20260906060027 | 16 | 128 | 1.6 | 3.2 | 0.00 | 0.00 | 0.00 | 89 | 998.2 |
| 20260906054524 | 16 | 119 | 1.6 | 1.6 | 0.00 | 0.00 | 0.00 | 91 | 998.2 |
| 20260906053022 | 16 | 169 | 0.0 | 0.0 | 0.00 | 0.00 | 0.00 | 91 | 998.0 |
| 20260906051521 | 16 | 185 | 0.0 | 0.0 | 0.00 | 0.00 | 0.00 | 90 | 997.8 |
| 20260906050018 | 17 | 179 | 0.0 | 0.0 | 0.00 | 0.00 | 0.00 | 89 | 998.1 |
| 20260906044513 | 17 | 182 | 0.0 | 0.0 | 0.00 | 0.00 | 0.00 | 88 | 997.8 |
| 20260906043012 | 17 | 187 | 0.0 | 3.2 | 0.00 | 0.00 | 0.00 | 87 | 997.7 |
| 20260906041507 | 18 | 176 | 0.0 | 0.0 | 0.00 | 0.00 | 0.00 | 88 | 997.3 |
| 20260906040003 | 18 | 156 | 0.0 | 3.2 | 0.00 | 0.03 | 0.03 | 88 | 997.5 |
| 20260906034500 | 18 | 94 | 1.6 | 3.2 | 0.00 | 0.03 | 0.03 | 89 | 997.4 |
| 20260906032957 | 18 | 184 | 0.0 | 0.0 | 0.00 | 0.03 | 0.03 | 90 | 997.3 |
| 20260906031455 | 18 | 166 | 0.0 | 3.2 | 0.00 | 0.03 | 0.03 | 89 | 997.1 |
| 20260906025951 | 19 | 178 | 0.0 | 1.6 | 0.00 | 0.03 | 0.03 | 87 | 997.1 |
| 20260906024450 | 20 | 162 | 0.0 | 0.0 | 0.00 | 0.03 | 0.03 | 86 | 997.1 |
| 20260906022946 | 20 | 179 | 0.0 | 4.8 | 0.00 | 0.03 | 0.03 | 83 | 996.9 |
| 20260906021443 | 21 | 180 | 1.6 | 3.2 | 0.00 | 0.03 | 0.03 | 83 | 996.6 |
| 20260906015938 | 21 | 174 | 1.6 | 1.6 | 0.00 | 0.03 | 0.03 | 84 | 996.5 |
| 20260906014438 | 21 | 169 | 0.0 | 1.6 | 0.00 | 0.03 | 0.03 | 84 | 996.6 |
| 20260906012936 | 22 | 204 | 1.6 | 3.2 | 0.00 | 0.03 | 0.03 | 85 | 996.5 |
| 20260906011431 | 22 | 103 | 3.2 | 3.2 | 0.00 | 0.03 | 0.03 | 83 | 996.3 |
| 20260906005930 | 22 | 164 | 0.0 | 1.6 | 0.00 | 0.03 | 0.03 | 87 | 995.8 |
| 20260906004428 | 22 | 204 | 0.0 | 0.0 | 0.00 | 0.03 | 0.03 | 91 | 995.7 |
| 20260906002925 | 22 | 171 | 0.0 | 0.0 | 0.00 | 0.03 | 0.03 | 90 | 995.8 |
| 20260906001421 | 22 | 174 | 0.0 | 0.0 | 0.00 | 0.03 | 0.03 | 91 | 995.8 |
| 20260905235918 | 22 | 193 | 0.0 | 0.0 | 0.00 | 0.03 | 0.03 | 88 | 995.8 |